Other Public Products
Issued by NWS Grand Forks, ND

Home | Current Version | Previous Version | Graphics & Text | Print | Product List | Glossary On
Versions: 1 2 3 4 5 6 7 8 9 10 11 12 13 14 15 16 17 18 19 20 21 22 23 24 25 26 27 28 29 30 31 32 33 34 35 36 37 38 39 40 41 42 43 44 45 46 47 48 49 50
000
FPUS83 KFGF 221510
OPUFGF
PRAIRIE TO PINES WEATHER ROUNDUP
NATIONAL WEATHER SERVICE EASTERN NORTH DAKOTA/GRAND FORKS ND
1000 AM CDT THU JUN 22 2017

 **SATELLITE DATA USED TO AUGMENT SKY COVER AT AUTOMATED STATIONS**
 *****  WEATHER ACROSS EASTERN NORTH DAKOTA  *****

CITY           SKY/WX    TMP DP  RH WIND       PRES   REMARKS
GRAND FORKS    PTSUNNY   64  52  64 SW8       29.71F
GRAND FORKS AF PTSUNNY   63  51  65 SW7       29.72S
GRAND CITY NWS NOT AVBL
BUXTON         NOT AVBL
DEVILS LAKE    FAIR      66  49  54 W17       29.74S
FARGO          FAIR      71  47  42 NW12      29.74S
WAHPETON ARPT  FAIR      61  52  72 NW6       29.74S
$$

 *****  WEATHER ACROSS CENTRAL AND WESTERN NORTH DAKOTA  *****

CITY           SKY/WX    TMP DP  RH WIND       PRES   REMARKS
JAMESTOWN      FAIR      65  47  52 NW13      29.77F
BISMARCK       CLOUDY    67  44  43 NW16G25   29.83S
MINOT          FAIR      66  43  43 W20G26    29.78R
MINOT AFB      FAIR      65  43  46 NW21G26   29.76R
GARRISON         N/A     64  44  48 NW16G25   29.82R
WILLISTON      FAIR      64  43  46 W16       29.87R
DICKINSON      FAIR      64  41  42 NW20G25   29.87S
HETTINGER      PTSUNNY   67  39  35 NW20G28   29.92R
$$

 *****  OTHER OBSERVATIONS NORTHEAST NORTH DAKOTA  *****

CITY           SKY/WX    TMP DP  RH WIND       PRES   REMARKS
WALHALLA       NOT AVBL
LANGDON        FAIR      66  54  63 W14G22    29.70S
CAVALIER       FAIR      64  52  63 SW7       29.68S
GRAFTON        FAIR      66  52  59 W12       29.70F
CANDO          NOT AVBL
FORT TOTTEN      N/A     67  50  53 W7        29.95S
ROLLA            N/A     63  41  45 W14G23    29.71S
RUGBY          NOT AVBL
 ***** THE ABOVE OBSERVATIONS ARE NON NWS ARE NOT QUALITY
        CONTROLLED AND MAY MIS-REPORT RAIN FOR SNOW...
$$

 *****  OTHER OBSERVATIONS SOUTHEAST NORTH DAKOTA *****

CITY           SKY/WX    TMP DP  RH WIND       PRES   REMARKS
COOPERSTOWN    FAIR      64  48  55 W10       29.77S
VALLEY CITY    FAIR      66  48  52 NW9G16    29.78S
OAKES          NOT AVBL
GWINNER        SUNNY     66  50  55 NW8       29.77S
SHEYENNE NWR     N/A     65  51  61 NW5       29.95S
BUFFALO        NOT AVBL
WYNDMERE       NOT AVBL
 ***** THE ABOVE OBSERVATIONS ARE NON NWS ARE NOT QUALITY
       CONTROLLED AND MAY MIS-REPORT RAIN FOR SNOW...
$$

  *****  WEATHER ACROSS NORTHERN MINNESOTA  *****

CITY           SKY/WX    TMP DP  RH WIND       PRES   REMARKS
FLAG ISLAND    FAIR      63  46  55 W9        29.63S
WARROAD        FAIR      59  50  72 SW6       29.69R
ROSEAU         PTSUNNY   61  48  63 W5        29.69R
HALLOCK        PTSUNNY   63  52  67 SW6       29.68F
THF RVR FALLS  FAIR      59  49  69 SW8       29.73S
HALSTAD        NOT AVBL
FOSSTON        FAIR      63  50  63 SW6       29.73F
BAUDETTE       FAIR      60  50  69 SW6       29.68R
WASKISH        CLOUDY    64  52  63 W10       29.70F
CROOKSTON      LGT RAIN  59  54  82 W5        29.74S
$$
  *****  WEATHER ACROSS CENTRAL AND WEST MINNESOTA  *****

CITY           SKY/WX    TMP DP  RH WIND       PRES   REMARKS
BEMIDJI        FAIR      65  48  54 W6        29.72S
PARK RAPIDS    FAIR      67  50  54 W6        29.73S
WADENA           N/A     63  55  77 NW6       29.72F
DETROIT LAKES  FAIR      66  52  59 NW6       29.75S
MOORHEAD       FAIR      68  48  49 NW8       29.74F
FERGUS FALLS   FAIR      63  59  88 N5        29.70F
ELBOW LAKE     FAIR      64  60  86 N5        29.73F
MORRIS MN      LGT RAIN  64  63  94 W3        29.74R
STAPLES        FAIR      64  55  72 NW5       29.71F
WHEATON        FAIR      63  57  82 CALM      29.75R
$$
  *****  WEATHER ELSEWHERE ACROSS MINNESOTA  *****

CITY           SKY/WX    TMP DP  RH WIND       PRES   REMARKS
DULUTH         FAIR      68  54  60 NW6       29.68F
INTRNTL FALLS  FAIR      65  51  60 W6        29.67S
ELY            FAIR      66  48  52 W6        29.67F
CLOQUET        FAIR      66  55  68 SW6       29.69F
BRAINERD       FAIR      66  56  70 N7        29.69F
HIBBING        FAIR      66  55  67 NW9       29.68F
ALEXANDRIA     FAIR      64  57  78 N3        29.74R
SAINT CLOUD    LGT RAIN  59  57  93 SE3       29.71F
MINNEAPOLIS    HVY RAIN  70  63  78 SE12      29.70R
$$

  *****  WEATHER ACROSS SOUTH DAKOTA  *****

CITY           SKY/WX    TMP DP  RH WIND       PRES   REMARKS
SIOUX FALLS    CLOUDY    71  63  75 NE14      29.71R
BROOKINGS      FAIR      64  61  90 NE8       29.72F
WATERTOWN      RAIN      59  56  89 N14       29.74S
HURON          CLOUDY    59  58  96 N9        29.72F
SISSETON         N/A     62  57  83 NW8       29.73R
ABERDEEN       FAIR      65  52  62 N14       29.79R
MITCHELL       CLOUDY    69  59  70 NE8       29.73R
PIERRE         PTSUNNY   60  53  77 N16       29.81R
MOBRIDGE       FAIR      70  46  42 N18G26    29.81R
RAPID CITY     CLOUDY    65  51  60 N17G25    29.93R
$$

  *****  SOME WEATHER IN NEARBY STATES *****

CITY           SKY/WX    TMP DP  RH WIND       PRES   REMARKS
GLASGOW MT     FAIR      60  39  45 NW15      29.93S
GREAT FALLS MT FAIR      57  38  48 CALM      30.06R
CHEYENNE WY    FAIR      69  46  43 N20G26    30.01R
SCOTTSBLUFF NE FAIR      73  51  46 NW17      29.90R
OMAHA NE       FAIR      79  62  56 S14G20    29.66F
DES MOINES IA  PTSUNNY   80  65  59 S13       29.70S
DAVENPORT IA   FAIR      79  69  71 S12       29.80F
CHICAGO IL     PTSUNNY   83  66  56 SW17G25   29.83F
EAU CLAIRE WI  PTSUNNY   69  68  96 SW5       29.73R
LA CROSSE WI   CLOUDY    75  66  73 S12       29.71F
$$

  *****  SOME NATIONAL WEATHER *****

CITY           SKY/WX    TMP DP  RH WIND       PRES   REMARKS
LA GUARDIA NY  PTSUNNY   78  55  44 NE8       29.99F
RALEIGH NC     PTSUNNY   81  74  79 SW9       30.10S
ATLANTA GA     LGT RAIN  74  73  97 E7        30.12S FOG
NEW ORLEANS LA PTSUNNY   84  76  76 S16G31    29.81R HX  93
OKLAHOMA CITY  FAIR      78  67  68 MISG      29.80S
ALBUQUERQUE NM FAIR      81  48  31 N6        30.03F
SALT LAKE CITY FAIR      74  39  28 NW8       30.04R
LOS ANGELES CA CLOUDY    65  62  90 E6        29.80R FOG
BOISE ID       FAIR      63  37  38 NW10      30.13R
SEATTLE WA     FAIR      59  48  67 N8        30.32R
$$

*** WEATHER ACROSS MANITOBA...SASKATCHEWAN AND ONTARIO ***
                ***ONTARIO***

CITY           SKY/WX    TMP DP  RH WIND       PRES   REMARKS
GERALDTON      CLOUDY    59  55  88 SW8       29.59F
THUNDER BAY    PTSUNNY   61  54  77 CALM      29.62F
SIOUX LOOKOUT  PTSUNNY   64  57  77 W9        29.60S
TORONTO        LGT RAIN  66  57  72 CALM      29.99R
BIG TROUT LK   LGT RAIN  55  52  88 SE8       29.55F
PICKLE LAKE    LGT RAIN  55  55 100 S6        29.55S FOG
DRYDEN         MOSUNNY   64  57  77 S9        29.60F
KENORA         MOSUNNY   63  55  77 SW14      29.63R
$$
                *** MANITOBA***

CITY           SKY/WX    TMP DP  RH WIND       PRES   REMARKS
BRANDON        MOSUNNY   63  43  48 W29G39    29.61S
DAUPHIN        CLOUDY    57  45  62 W18G33    29.49S
ISLAND LAKE    MOSUNNY   63  54  72 E5        29.46S
PILOT MOUND      N/A     63  41  45 W10G21      N/A
THE PAS        MOSUNNY   57  50  77 NW8       29.41S
THOMPSON       LGT RAIN  57  55  94 NE6       29.43R
WINNIPEG       MOSUNNY   64  48  55 W17G24    29.61S
LYNN LAKE      CLOUDY    64  48  55 N10       29.51R
CHURCHILL      MOSUNNY   45  41  87 N14       29.54R
GILLAM         PTSUNNY   64  52  63 S8        29.46S
$$
                ***SASKATCHEWAN***

CITY           SKY/WX    TMP DP  RH WIND       PRES   REMARKS
ESTEVAN        MOSUNNY   63  37  39 W30G38    29.76F
KINDERSLEY     LGT RAIN  46  46 100 W20G31    29.79S
LLOYDMINSTER   LGT RAIN  48  48 100 NW18G29   29.86R
PRINCE ALBERT  CLOUDY    54  52  94 NW10G18   29.58R
REGINA         PTSUNNY   55  39  54 W29G44    29.72S
YORKTON        CLOUDY    55  43  62 W24G35    29.55R



USA.gov is the U.S. government's official web portal to all federal, state and local government web resources and services.